Regional Weather Roundup
Issued by NWS

Home | Current Version | Previous Version | Text Only | Print | Product List | Glossary On
Versions: 1 2 3 4 5 6 7 8 9 10 11 12 13 14 15 16 17 18 19 20 21 22 23 24 25 26 27 28 29 30 31 32 33 34 35 36 37 38 39 40 41 42 43 44 45 46 47 48 49 50
659
ASUS43 KDMX 291606
RWRIA

WEATHER ROUNDUP FOR IOWA
NATIONAL WEATHER SERVICE DES MOINES IA
1100 AM CDT SAT APR 29 2017

NOTE: "FAIR" INDICATES FEW OR NO CLOUDS BELOW 12,000 FEET WITH NO
SIGNIFICANT WEATHER AND/OR OBSTRUCTIONS TO VISIBILITY.

* - THESE STATIONS ARE NOT NWS STATIONS...THUS NOT UNDER NWS
QUALITY CONTROL.  THEY ALSO DO NOT REPORT WEATHER SUCH
AS PRECIPITATION OR FOG.

IAZ001>003-012>014-020>022-031>034-043>046-291700-
   NORTHWEST IOWA

CITY           SKY/WX    TMP DP  RH WIND       PRES   REMARKS
CARROLL *      CLOUDY    45  37  76 NE17G26   30.11R
CHEROKEE *     CLOUDY    45  33  63 NE13G24   30.15F
DENISON *      PTSUNNY   43  34  70 NE20      30.12R
LE MARS *      CLOUDY    46  32  57 NE17G25   30.17F
ORANGE CITY *  CLOUDY    45  34  65 NE12G18   30.17F
SHELDON *      CLOUDY    45  32  61 NE18      30.17F
SIOUX CITY     PTSUNNY   47  31  53 NE16      30.15F
SPENCER        PTSUNNY   45  33  63 NE21      30.18F
STORM LAKE *   PTSUNNY   43  32  65 NE23      30.13F
$$

IAZ055>058-069>071-079>083-090>094-291700-
   SOUTHWEST IOWA

CITY           SKY/WX    TMP DP  RH WIND       PRES   REMARKS
ATLANTIC *     MIX PCPN  43  37  81 NE15      30.06R
AUDUBON *      CLOUDY    45  37  76 NE17      30.10R
CLARINDA *     CLOUDY    45  41  87 NE14G21   30.05R FOG
COUNCIL BLFS * CLOUDY    43  39  87 NE21      30.04S
CRESTON *      LGT RAIN  43  41  93 NE22G29   30.04R
HARLAN  *      MIX PCPN  43  37  81 NE20G26   30.11R
LAMONI         LGT RAIN  44  42  93 NE20G30   30.00R FOG
RED OAK *      CLOUDY    43  41  93 NE17G26   30.04R
SHENANDOAH *   MIX PCPN  43  41  93 NE18G26   30.03R
$$

IAZ047>049-059>061-072>074-084-291700-
   CENTRAL IOWA

CITY           SKY/WX    TMP DP  RH WIND       PRES   REMARKS
AMES           CLOUDY    44  36  73 NE20G29   30.10F
ANKENY *       CLOUDY    45  37  76 NE14      30.10R
BOONE *        CLOUDY    43  36  75 NE20      30.09S
CHARITON *     LGT RAIN  45  41  87 NE21      30.05S
DES MOINES     LGT RAIN  45  38  76 E15G25    30.08S
GRINNELL*      CLOUDY    45  36  70 NE20G30   30.10R
KNOXVILLE *    LGT RAIN  45  41  87 E16G24    30.06S
MARSHALLTOWN   CLOUDY    44  36  73 NE22G32   30.11R
NEWTON *       CLOUDY    45  36  70 NE18G28   30.10R
PELLA *        RAIN      45  40  84 E8        30.11R
PERRY *          N/A     44  35  71 NE15G22   30.08F
$$

IAZ004>006-015-016-023>025-035-036-291700-
   NORTH CENTRAL IOWA

CITY           SKY/WX    TMP DP  RH WIND       PRES   REMARKS
ALGONA *       PTSUNNY   45  34  65 NE21      30.17F
CLARION *      CLOUDY    45  36  70 NE23      30.15S
ESTHERVILLE    CLOUDY    42  33  70 NE17      30.20F
FORT DODGE *   CLOUDY    45  32  61 NE13G20   30.15S
MASON CITY     CLOUDY    44  32  62 NE20G25   30.19F
FOREST CITY *    N/A     45  30  57 NE13G22   30.19F
WEBSTER CITY * CLOUDY    45  36  70 NE21G30   30.11F
IOWA FALLS *   PTSUNNY   44  35  72 NE13G24   30.14S
$$

IAZ007>011-017>019-026>030-037>042-050>054-066-291700-
   NORTHEAST IOWA

CITY           SKY/WX    TMP DP  RH WIND       PRES   REMARKS
CEDAR RAPIDS   CLOUDY    46  36  68 NE21      30.09R
CHARLES CITY * PTSUNNY   43  34  70 NE14G21   30.18F
CLINTON *      CLOUDY    47  36  65 E22G28    30.12R
DECORAH *      CLOUDY    43  30  61 NE12G20   30.18F
DUBUQUE        PTSUNNY   44  33  65 NE23      30.12S
MONTICELLO *   CLOUDY    46  34  61 NE17G28   30.11S
OELWEIN *      CLOUDY    43  34  70 NE25      30.13F
WATERLOO       CLOUDY    44  34  67 NE17G28   30.15S
$$

IAZ064-065-067-068-078-291700-
   EAST CENTRAL IOWA

CITY           SKY/WX    TMP DP  RH WIND       PRES   REMARKS
DAVENPORT      LGT RAIN  45  36  70 E13       30.12R
IOWA CITY      CLOUDY    48  36  63 NE16G24   30.10R
MT. PLEASANT * LGT RAIN  45  41  86 E18       30.13R
MUSCATINE *    LGT RAIN  45  37  76 NE20G29   30.11R
QUAD CITIES    LGT RAIN  45  37  73 NE17      30.11R
$$

IAZ062-063-075>077-085>089-095>099-291700-
   SOUTHEAST IOWA

CITY           SKY/WX    TMP DP  RH WIND       PRES   REMARKS
BURLINGTON     RAIN      46  44  93 NE17      30.08R
FAIRFIELD *    CLOUDY    45  39  81 E23G29    30.10R HAZE
FORT MADISON * RAIN      46  45  93 NE12      30.11R
KEOKUK *       HVY RAIN  46  45  93 NE12      30.05R
OSKALOOSA *    RAIN      45  42  89 NE12      30.11R
CENTERVILLE *  RAIN      45  45 100 NE20G26   30.02F
OTTUMWA        LGT RAIN  46  43  89 E14       30.10R FOG
WASHINGTON *   LGT RAIN  45  41  87 MISG      30.13R
$$

ABBREVIATIONS USED IN REMARKS
   TC - TEMPERATURES IN CELSIUS
  WCI - WIND CHILL INDEX
   HX - HEAT INDEX
  VSB - VISIBILITY
$$





USA.gov is the U.S. government's official web portal to all federal, state and local government web resources and services.